[[{"header":{"parameterUnit":"m.s-1","parameterCategory":1,"la1":30.2991,"la2":30.254,"lo1":-89.0895,"lo2":-89.0444,"dy":0.0017,"dx":0.0017,"nx":28,"ny":28,"refTime":"2023-09-06T03:00:00:Z","depth":0,"parameterNumber":2,"parameterNumberName":"U-component_of_WINDS"},"data":[0,0,0,0,0,0,0,0,0,0,0,0,0,0,0,0,0,0,0,0,0,0,0,0,0,0,0,0,0,0,0,0,0,0,0,0,0,0,0,0,0,0,0,0,0,0,0,0,0,0,0,0,0,0,0,0,0,0,-4.338,-4.3381,0,-4.3449,-4.345,-4.3451,-4.339,-4.3387,-4.3385,-4.3383,-4.3452,-4.3456,-4.346,0,0,0,0,0,0,0,0,0,0,0,0,0,-4.3193,-4.3197,-4.338,-4.3381,-4.3382,-4.3449,-4.345,-4.3451,-4.339,-4.3387,-4.3384,-4.3381,-4.3451,-4.3456,-4.3461,0,0,0,0,0,0,0,0,0,0,0,0,0,-4.327,-4.3198,-4.338,-4.3359,-4.3358,-4.3449,-4.345,-4.3451,-4.3391,-4.3387,-4.3383,-4.338,-4.3449,-4.3455,-4.3461,-4.3575,0,0,-4.348,-4.3483,0,0,0,0,0,0,0,0,-4.3266,-4.3277,-4.3362,-4.3361,-4.336,-4.3407,-4.341,-4.3493,-4.3392,-4.3379,-4.3382,-4.3378,-4.344,-4.3447,-4.3468,-4.3578,-4.3581,-4.3481,-4.3485,-4.3488,-4.3489,0,0,0,0,0,0,0,-4.326,-4.3273,-4.3407,-4.3363,-4.3362,-4.3347,-4.3353,-4.3425,-4.3429,-4.3379,-4.3375,-4.3384,-4.3439,-4.3462,-4.3469,-4.3582,-4.3481,-4.3486,-4.349,-4.3493,-4.3791,-4.3795,0,0,0,0,0,0,-4.3257,-4.3269,-4.3405,-4.3409,-4.3303,-4.3353,-4.336,-4.3396,-4.3428,-4.343,-4.3387,-4.3381,-4.3453,-4.3462,-4.3471,-4.3607,-4.3487,-4.3493,-4.3497,-4.3787,-4.3792,-4.3796,0,0,0,0,0,0,-4.3254,-4.327,-4.3402,-4.3338,-4.3354,-4.336,-4.34,-4.3399,-4.3422,-4.3435,-4.3435,-4.3411,-4.3451,-4.3463,-4.355,-4.3609,-4.3496,-4.3502,-4.3782,-4.3788,-4.3794,-4.388,0,0,0,0,0,0,-4.3248,-4.3269,-4.3312,-4.334,-4.3358,-4.348,-4.3404,-4.3403,-4.3434,-4.3426,-4.3456,-4.3458,-4.3449,-4.3541,-4.3556,-4.3615,-4.3507,-4.3776,-4.3785,-4.3792,-4.3872,-4.3888,-4.3902,0,0,0,0,0,-4.3242,-4.3333,-4.3315,-4.3332,-4.3412,-4.3484,-4.3494,-4.3482,-4.3439,-4.3482,-4.349,-4.3457,-4.36,-4.3551,-4.3567,-4.3629,-4.3773,-4.3782,-4.3791,-4.3865,-4.3885,-4.3902,0,0,0,0,0,0,-4.3312,-4.3336,-4.3316,-4.3419,-4.345,-4.3473,-4.3528,-4.3504,-4.3547,-4.3538,-4.3521,-4.3528,-4.3621,-4.3634,-4.3578,-4.3742,-4.3679,-4.3692,-4.373,-4.3749,-4.3764,-4.3759,-4.3512,0,0,0,0,0,-4.3339,-4.3396,-4.3414,-4.3503,-4.352,-4.3522,-4.3552,-4.3541,-4.3572,-4.3584,-4.3598,-4.3629,-4.3681,-4.3716,-4.3764,-4.3874,-4.388,-4.3925,-4.394,-4.3952,-4.3964,-4.4023,-4.4044,-4.3827,-4.3827,-4.3827,0,0,-4.3396,-4.3417,-4.3453,-4.3518,-4.354,-4.3599,-4.3533,-4.3597,-4.3641,-4.3594,-4.3677,-4.3689,-4.3723,-4.3822,-4.3866,-4.3836,-4.4025,-4.3964,-4.3974,-4.3979,-4.4035,-4.4056,-4.4074,-4.3833,-4.3832,-4.3831,0,0,-4.353,-4.3551,-4.3628,-4.3653,-4.3688,-4.3689,-4.3707,-4.3735,-4.3741,-4.3826,-4.3792,-4.3843,-4.3933,-4.3958,-4.3983,-4.4129,-4.41,-4.4145,-4.4225,-4.4283,-4.43,-4.4315,-4.4367,-4.4386,-4.4156,-4.4157,-4.4157,0,-4.3596,-4.3684,-4.367,-4.3738,-4.3768,-4.3729,-4.3807,-4.3831,-4.388,-4.3901,-4.3866,-4.3979,-4.3999,-4.4104,-4.414,-4.4161,-4.4182,-4.4141,-4.4299,-4.4314,-4.4328,-4.4377,-4.4397,-4.4162,-4.4161,-4.4161,-4.416,0,-4.3763,-4.3825,-4.3883,-4.3932,-4.3968,-4.4041,-4.4039,-4.4077,-4.4063,-4.4068,-4.4154,-4.4177,-4.423,-4.4254,-4.424,-4.4358,-4.4337,-4.4301,-4.4238,-4.4354,-4.44,-4.4419,-4.417,-4.4168,-4.4166,-4.4165,0,0,-4.3941,-4.3984,-4.4006,-4.4028,-4.4065,-4.4112,-4.4184,-4.4236,-4.4269,-4.4305,-4.4364,-4.4442,-4.4409,-4.4438,-4.4427,-4.4478,-4.4593,-4.4435,-4.4436,-4.4464,-4.4724,-4.4751,-4.4773,-4.4574,-4.4578,-4.458,-4.4721,0,-4.4076,-4.4201,-4.4192,-4.4309,-4.4366,-4.4331,-4.4393,-4.4422,-4.4429,-4.4478,-4.4485,-4.4541,-4.4493,-4.451,-4.4559,-4.4568,-4.4644,-4.4558,-4.4629,-4.4631,-4.4621,-4.4797,-4.4825,-4.4957,-4.4739,-4.4742,-4.4744,0,-4.425,-4.4293,-4.4417,-4.4446,-4.447,-4.4526,-4.4574,-4.4622,-4.4655,-4.4656,-4.4689,-4.467,-4.4741,-4.4678,-4.4776,-4.4718,-4.4746,-4.4756,-4.476,-4.4766,-4.4694,-4.4807,-4.4999,-4.5019,-4.4773,-4.477,-4.4768,0,-4.4368,-4.4457,-4.4542,-4.4562,-4.4599,-4.464,-4.4657,-4.4686,-4.4719,-4.4761,-4.4782,-4.4832,-4.4859,-4.4898,-4.4893,-4.4847,-4.4994,-4.493,-4.4997,-4.4997,-4.5029,-4.5027,-4.5227,-4.5048,-4.5048,-4.5048,-4.5047,0,-4.4519,-4.4596,-4.4595,-4.4648,-4.4733,-4.4722,-4.4807,-4.4819,-4.4846,-4.4901,-4.4873,-4.4925,-4.4915,-4.4967,-4.4963,-4.5046,-4.5058,-4.5062,-4.506,-4.5064,-4.5064,-4.5082,-4.5072,-4.5053,-4.5052,-4.5051,-4.505,0,-4.4664,-4.4667,-4.4758,-4.4786,-4.4795,-4.4857,-4.4881,-4.493,-4.4936,-4.5005,-4.502,-4.5028,-4.5088,-4.5087,-4.5154,-4.5152,-4.5254,-4.5241,-4.5243,-4.524,-4.5308,-4.5301,-4.5527,-4.5556,-4.5358,-4.536,-4.5361,0,-4.476,-4.4819,-4.4854,-4.4889,-4.4909,-4.4965,-4.4999,-4.4992,-4.5028,-4.5071,-4.5116,-4.5173,-4.5218,-4.5315,-4.5326,-4.5378,-4.5366,-4.5442,-4.5374,-4.5377,-4.5368,-4.5364,-4.537,-4.5455,-4.5457,-4.5459,-4.546,0,-4.4931,-4.493,-4.498,-4.5032,-4.5073,-4.5113,-4.5149,-4.5179,-4.5176,-4.5218,-4.5279,-4.5314,-4.5384,-4.5441,-4.5491,-4.5508,-4.5484,-4.5482,-4.55,-4.5505,-4.5503,-4.5505,-4.5279,-4.5477,-4.5475,-4.5474,-4.5473,-4.5472,-4.5054,-4.5105,-4.5138,-4.5195,-4.5222,-4.5258,-4.5306,-4.5318,-4.5369,-4.5426,-4.5418,-4.5487,-4.5519,-4.5585,-4.5607,-4.566,-4.5633,-4.566,-4.5666,-4.5673,-4.5681,-4.5496,-4.5669,-4.5669,-4.5668,-4.5668,-4.5667,0,-4.5223,-4.5243,-4.5296,-4.5349,-4.5394,-4.5369,-4.5409,-4.5448,-4.5509,-4.5542,-4.5587,-4.5658,-4.5714,-4.5731,-4.5785,-4.5824,-4.5815,-4.5839,-4.5835,-4.584,-4.5701,-4.568,-4.5846,-4.5846,-4.5846,-4.5846,-4.5846,-4.5846,-4.5316,-4.5401,-4.5405,-4.5503,-4.5522,-4.559,-4.5615,-4.5647,-4.5674,-4.5754,-4.5801,-4.5812,-4.5839,-4.5895,-4.5945,-4.5949,-4.597,-4.5999,-4.5998,-4.5868,-4.585,-4.5833,-4.5812,-4.6003,-4.6004,-4.6132,-4.6133,-4.6134]},{"header":{"parameterUnit":"m.s-1","parameterCategory":1,"la1":30.2991,"la2":30.254,"lo1":-89.0895,"lo2":-89.0444,"dy":0.0017,"dx":0.0017,"nx":28,"ny":28,"refTime":"2023-09-06T03:00:00:Z","depth":0,"parameterNumber":3,"parameterNumberName":"V-component_of_WINDS"},"data":[0,0,0,0,0,0,0,0,0,0,0,0,0,0,0,0,0,0,0,0,0,0,0,0,0,0,0,0,0,0,0,0,0,0,0,0,0,0,0,0,0,0,0,0,0,0,0,0,0,0,0,0,0,0,0,0,0,0,-0.6569,-0.6569,0,-0.6539,-0.6538,-0.6538,-0.6508,-0.6508,-0.6507,-0.6507,-0.6476,-0.6475,-0.6475,0,0,0,0,0,0,0,0,0,0,0,0,0,-0.66,-0.66,-0.6569,-0.6569,-0.6568,-0.6539,-0.6538,-0.6538,-0.6508,-0.6508,-0.6507,-0.6507,-0.6476,-0.6476,-0.6475,0,0,0,0,0,0,0,0,0,0,0,0,0,-0.658,-0.6599,-0.6569,-0.655,-0.6548,-0.6539,-0.6538,-0.6538,-0.6508,-0.6508,-0.6507,-0.6507,-0.6476,-0.6476,-0.6475,-0.6482,0,0,-0.6473,-0.6472,0,0,0,0,0,0,0,0,-0.6581,-0.6579,-0.6553,-0.6551,-0.6549,-0.6527,-0.6538,-0.6519,-0.6509,-0.6523,-0.6507,-0.6506,-0.6493,-0.6491,-0.6487,-0.6481,-0.648,-0.6473,-0.6472,-0.6472,-0.6472,0,0,0,0,0,0,0,-0.6582,-0.658,-0.6557,-0.6553,-0.655,-0.6542,-0.6539,-0.6534,-0.6512,-0.6522,-0.652,-0.6517,-0.6492,-0.6487,-0.6486,-0.6479,-0.6473,-0.6472,-0.6472,-0.6471,-0.6477,-0.6477,0,0,0,0,0,0,-0.6587,-0.6581,-0.6558,-0.6556,-0.6564,-0.6542,-0.6538,-0.6534,-0.6512,-0.6508,-0.6517,-0.6515,-0.6489,-0.6487,-0.6485,-0.6492,-0.6472,-0.6471,-0.6471,-0.6476,-0.6477,-0.6478,0,0,0,0,0,0,-0.6588,-0.6585,-0.6559,-0.6568,-0.6564,-0.6542,-0.6538,-0.6534,-0.653,-0.6508,-0.6504,-0.6517,-0.6488,-0.6486,-0.6483,-0.649,-0.6471,-0.647,-0.6476,-0.6477,-0.6477,-0.6506,0,0,0,0,0,0,-0.6589,-0.6586,-0.6589,-0.6568,-0.6564,-0.6559,-0.6539,-0.6534,-0.6528,-0.6526,-0.6507,-0.6503,-0.6488,-0.6484,-0.6482,-0.6489,-0.647,-0.6475,-0.6476,-0.6477,-0.6505,-0.6508,-0.6511,0,0,0,0,0,-0.659,-0.6598,-0.6589,-0.6586,-0.6567,-0.6559,-0.6557,-0.6539,-0.6529,-0.6532,-0.6518,-0.6504,-0.6489,-0.6484,-0.6482,-0.6488,-0.6474,-0.6476,-0.6477,-0.6503,-0.6507,-0.6511,0,0,0,0,0,0,-0.662,-0.6595,-0.6585,-0.6587,-0.6575,-0.6554,-0.6557,-0.6544,-0.6535,-0.6533,-0.6511,-0.6507,-0.6507,-0.6497,-0.6492,-0.6494,-0.648,-0.6481,-0.6501,-0.6504,-0.6507,-0.651,-0.6469,0,0,0,0,0,-0.6627,-0.6623,-0.6601,-0.6605,-0.6599,-0.6579,-0.6575,-0.6562,-0.655,-0.6545,-0.653,-0.6519,-0.6511,-0.6507,-0.6499,-0.6502,-0.6498,-0.6506,-0.6509,-0.6511,-0.6513,-0.6513,-0.6516,-0.6482,-0.6482,-0.6482,0,0,-0.6641,-0.6627,-0.6626,-0.661,-0.66,-0.6596,-0.6575,-0.6572,-0.6569,-0.6544,-0.6541,-0.653,-0.6515,-0.6515,-0.6515,-0.6507,-0.6521,-0.6513,-0.6515,-0.6515,-0.6515,-0.6518,-0.6521,-0.6483,-0.6483,-0.6482,0,0,-0.6665,-0.6654,-0.6656,-0.6645,-0.663,-0.6616,-0.6616,-0.6597,-0.6589,-0.6585,-0.6566,-0.6561,-0.655,-0.654,-0.6533,-0.6551,-0.6538,-0.6549,-0.6566,-0.6567,-0.657,-0.6572,-0.6579,-0.6581,-0.655,-0.655,-0.655,0,-0.6685,-0.6678,-0.6658,-0.6656,-0.6649,-0.6626,-0.6628,-0.6618,-0.6601,-0.6597,-0.6589,-0.6573,-0.6561,-0.6558,-0.6563,-0.6558,-0.6558,-0.6552,-0.6571,-0.6573,-0.6575,-0.6581,-0.6583,-0.6552,-0.6552,-0.6552,-0.6551,0,-0.6703,-0.6698,-0.6702,-0.6685,-0.6679,-0.6679,-0.6658,-0.6654,-0.6641,-0.6628,-0.6624,-0.6609,-0.6598,-0.6596,-0.6583,-0.6591,-0.6587,-0.6575,-0.6561,-0.658,-0.6585,-0.6588,-0.6554,-0.6554,-0.6553,-0.6553,0,0,-0.6747,-0.6718,-0.672,-0.6712,-0.6692,-0.6688,-0.6686,-0.6675,-0.6672,-0.666,-0.6658,-0.6647,-0.6636,-0.6628,-0.6614,-0.6614,-0.663,-0.6602,-0.6602,-0.6608,-0.6637,-0.6647,-0.665,-0.662,-0.662,-0.6621,-0.6639,0,-0.6768,-0.6763,-0.6745,-0.6746,-0.6741,-0.6718,-0.6716,-0.6703,-0.6691,-0.6685,-0.667,-0.6663,-0.6649,-0.6644,-0.6643,-0.6628,-0.6636,-0.6627,-0.6618,-0.6618,-0.6623,-0.6653,-0.6663,-0.6681,-0.664,-0.6641,-0.6641,0,-0.6792,-0.6782,-0.6782,-0.6762,-0.6759,-0.6758,-0.6746,-0.674,-0.6725,-0.6715,-0.6706,-0.669,-0.6686,-0.6672,-0.6666,-0.666,-0.6655,-0.6647,-0.6647,-0.6646,-0.6631,-0.6654,-0.6686,-0.6689,-0.6644,-0.6644,-0.6644,0,-0.6825,-0.6811,-0.6809,-0.6803,-0.6779,-0.6778,-0.6768,-0.6753,-0.6747,-0.6735,-0.6731,-0.6719,-0.6713,-0.6704,-0.6685,-0.6677,-0.6681,-0.6665,-0.6673,-0.6674,-0.6676,-0.6676,-0.6709,-0.6672,-0.6671,-0.6671,-0.6671,0,-0.6851,-0.6852,-0.6823,-0.6822,-0.6823,-0.6801,-0.6801,-0.6789,-0.6775,-0.6771,-0.675,-0.6746,-0.6721,-0.6714,-0.6699,-0.6696,-0.6693,-0.6685,-0.6681,-0.6688,-0.6689,-0.6685,-0.6684,-0.6672,-0.6672,-0.6672,-0.6672,0,-0.6888,-0.6868,-0.6865,-0.6842,-0.6836,-0.6838,-0.6818,-0.6816,-0.6801,-0.6796,-0.6794,-0.6771,-0.6762,-0.6742,-0.6727,-0.6717,-0.6718,-0.671,-0.6723,-0.6721,-0.673,-0.673,-0.6762,-0.6765,-0.6725,-0.6725,-0.6726,0,-0.6906,-0.6906,-0.6884,-0.6879,-0.687,-0.6864,-0.6857,-0.6835,-0.6829,-0.6811,-0.6811,-0.68,-0.679,-0.6777,-0.6758,-0.6747,-0.6739,-0.6751,-0.6738,-0.6744,-0.674,-0.6741,-0.674,-0.6755,-0.6755,-0.6756,-0.6756,0,-0.6941,-0.6931,-0.6923,-0.6911,-0.6904,-0.6893,-0.6882,-0.6879,-0.6854,-0.6848,-0.6839,-0.6831,-0.6816,-0.6805,-0.679,-0.6779,-0.6764,-0.676,-0.6762,-0.6769,-0.6776,-0.6773,-0.6732,-0.676,-0.676,-0.676,-0.6759,-0.6759,-0.6969,-0.6969,-0.6952,-0.6943,-0.6932,-0.6921,-0.6918,-0.6903,-0.6895,-0.6881,-0.6867,-0.6859,-0.6842,-0.6821,-0.6811,-0.6804,-0.6796,-0.6798,-0.6798,-0.6799,-0.6802,-0.6777,-0.6801,-0.6801,-0.68,-0.68,-0.68,0,-0.7004,-0.6992,-0.6984,-0.6968,-0.6961,-0.6946,-0.6932,-0.6927,-0.692,-0.6906,-0.6896,-0.6885,-0.6874,-0.6854,-0.6842,-0.684,-0.6832,-0.6837,-0.6837,-0.6835,-0.681,-0.681,-0.6843,-0.6843,-0.6843,-0.6843,-0.6843,-0.6843,-0.7021,-0.7019,-0.7007,-0.6998,-0.6986,-0.6978,-0.6971,-0.696,-0.6949,-0.6937,-0.6928,-0.6915,-0.6899,-0.6884,-0.6873,-0.6868,-0.6864,-0.6872,-0.6864,-0.6841,-0.6837,-0.6833,-0.6833,-0.6871,-0.6871,-0.689,-0.689,-0.6891]}]]